Regional Weather Roundup
Issued by NWS

Home | Current Version | Previous Version | Text Only | Print | Product List | Glossary On
Versions: 1 2 3 4 5 6 7 8 9 10 11 12 13 14 15 16 17 18 19 20 21 22 23 24 25 26 27 28 29 30 31 32 33 34 35 36 37 38 39 40 41 42 43 44 45 46 47 48 49 50
000
ASPQ40 PGUM 311110
RWRPQ
WEATHER ROUNDUP FOR THE MARIANAS AND MICRONESIA
NATIONAL WEATHER SERVICE TIYAN GU
900 PM CHST MON AUG 31 2015

GUZ001>004-311200-
MARIANA ISLANDS-

CITY           SKY/WX    TMP DP  RH WIND       PRES   REMARKS
GUAM AIRPORT   PTCLDY    82  75  78 SE3       29.88R
ANDERSEN AFB   PTCLDY    81  75  83 E6        29.88R
ROTA AIRPORT   NOT AVBL
TINIAN AP      NOT AVBL
SAIPAN AP      PTCLDY    81  79  94 E7        29.87R

$$

PMZ161-311200-
REPUBLIC OF PALAU-

CITY           SKY/WX    TMP DP  RH WIND       PRES   REMARKS
KOROR AP       CLOUDY    82  75  78 SW6       29.84R
KOROR WSO      CLOUDY    81  75  83 S9        29.87R

$$

PMZ171>174-311200-
FEDERATED STATES OF MICRONESIA-

CITY           SKY/WX    TMP DP  RH WIND       PRES   REMARKS
YAP AIRPORT    CLOUDY    79  77  94 CALM      29.84R
CHUUK AP       PTCLDY    82  77  83 W8        29.87R HX  91
POHNPEI AP     NOT AVBL
POHNPEI WSO    CLOUDY    81  75  83 W8        29.89R
KOSRAE AP      NOT AVBL

$$

PMZ181-311200-
REPUBLIC OF THE MARSHALL ISLANDS-

CITY           SKY/WX    TMP DP  RH WIND       PRES   REMARKS
KWAJALEIN AP   PTCLDY    84  75  74 E3        29.83R HX  92
MAJURO AP      NOT AVBL
MAJURO WSO     MOCLDY    82  77  83 S12       29.81R HX  91

$$




USA.gov is the U.S. government's official web portal to all federal, state and local government web resources and services.